This is the latest recevied weather packets stored in our database for station/object SQ6XL-13. If no packets are shown the sender has not sent any weather packets the latest 10 day(s).
| Time | Temp. | Humidity | Pressure | Rain* | Wind** | Luminosity | Snow |
|---|---|---|---|---|---|---|---|
| 1777803937 | 23.33° C | 36% | 1017.4 hPa | 0 mm | - | - | - |
| 1777803431 | 23.33° C | 37% | 1017.4 hPa | 0 mm | - | - | - |
| 1777802878 | 23.33° C | 36% | 1017.5 hPa | 0 mm | - | - | - |
| 1777802371 | 23.33° C | 40% | 1017.7 hPa | 0 mm | - | - | - |
| 1777801789 | 22.78° C | 39% | 1017.7 hPa | 0 mm | - | - | - |
| 1777801242 | 22.78° C | 39% | 1017.8 hPa | 0 mm | - | - | - |
| 1777800721 | 22.22° C | 40% | 1017.9 hPa | 0 mm | - | - | - |
| 1777800127 | 22.22° C | 41% | 1017.8 hPa | 0 mm | - | - | - |
| 1777799527 | 22.22° C | 40% | 1018 hPa | 0 mm | - | - | - |
| 1777798987 | 21.67° C | 43% | 1018.1 hPa | 0 mm | - | - | - |
| 1777798451 | 21.67° C | 41% | 1018.1 hPa | 0 mm | - | - | - |
| 1777797866 | 21.11° C | 41% | 1018.2 hPa | 0 mm | - | - | - |
| 1777797367 | 20.56° C | 42% | 1018.1 hPa | 0 mm | - | - | - |
| 1777796807 | 20.56° C | 40% | 1018.2 hPa | 0 mm | - | - | - |
| 1777796217 | 20.56° C | 41% | 1018.2 hPa | 0 mm | - | - | - |
| 1777795707 | 20.56° C | 42% | 1018.2 hPa | 0 mm | - | - | - |
| 1777795111 | 20.56° C | 41% | 1018.2 hPa | 0 mm | - | - | - |
| 1777794537 | 21.11° C | 41% | 1018.1 hPa | 0 mm | - | - | - |
| 1777794022 | 21.11° C | 41% | 1018.1 hPa | 0 mm | - | - | - |
| 1777793527 | 20.56° C | 42% | 1018.1 hPa | 0 mm | - | - | - |
| 1777792962 | 20° C | 42% | 1018.1 hPa | 0 mm | - | - | - |
| 1777792422 | 18.89° C | 44% | 1018.2 hPa | 0 mm | - | - | - |
| 1777791867 | 18.33° C | 45% | 1018.2 hPa | 0 mm | - | - | - |
| 1777791277 | 17.78° C | 46% | 1018.3 hPa | 0 mm | - | - | - |
| 1777790707 | 17.78° C | 46% | 1018.3 hPa | 0 mm | - | - | - |
* Rain latest hour (hover to see other rain measurements)
** Current wind speed in m/s (hover to see current wind gust speed)